(325477) = 2009 RG1

Discovered at La Sagra on 2009-09-11 by OAM.

Orbit

Orbit type: Main Belt

Note: WebGL enabled browser required.

epoch2023-02-25.0
epoch JD2460000.5
perihelion date2020-09-08.26962
perihelion JD2459100.76962
argument of perihelion (°)285.43612
ascending node (°)45.31715
inclination (°)8.70128
eccentricity0.2362216
perihelion distance (AU)1.8346970
Tisserand w.r.t. Jupiter3.5
ΔV w.r.t. Earth (km/sec)8.8
semimajor axis (AU)2.4021326
mean anomaly (°)238.18849
mean daily motion (°/day)0.26473320
aphelion distance (AU)2.970
period (years)3.72
P-vector [x]0.86463569
P-vector [y]-0.38309181
P-vector [z]-0.32503199
Q-vector [x]0.49074961
Q-vector [y]0.78253170
Q-vector [z]0.38315658
absolute magnitude16.92
phase slope0.15
uncertainty0
referenceMPO 745323
observations used250
oppositions12
arc length (days)8972
first opposition used1998
last opposition used2023
residual rms (arc-secs)0.84
perturbers coarse indicatorM-v
perturbers precise indicator003Ek
first observation date used1998-10-17.0
last observation date used2023-05-11.0
computer nameMPCLINUX
JD of orbit computation2456700.348100
perihelion JD uncertainty (days)9.2829E-05
argument of perihelion uncertainty (°)3.8812E-05
ascending node uncertainty (°)2.9822E-05
inclination uncertainty (°)1.2785E-05
eccentricity uncertainty 5.3935E-08
perihelion distance uncertainty (AU)1.2989E-07
Minimum Orbit Intersection Distances (in AU)
for orbit epoch: 2460000.5, reference: E2023-JB1
Mercury1.42524
Venus1.11154
Earth0.84649
Mars0.488
Jupiter2.44597
Saturn6.29761
Uranus15.5139
Neptune27.485

Observations

264 total observations over interval: 1998 10 17.37764 – 2023 05 11.334536
These data are available for download (format description).

Date (UT) J2000 RA J2000 Dec Magn Location Ref
1998 10 17.37764 03 01 23.68 +14 16 25.7 20.6 V 691 – Steward Observatory, Kitt Peak-Spacewatch MPS 305043
1998 10 17.39914 03 01 22.55 +14 16 26.7 19.9 V 691 – Steward Observatory, Kitt Peak-Spacewatch MPS 305043
1998 10 17.42391 03 01 21.03 +14 16 28.9 19.4 V 691 – Steward Observatory, Kitt Peak-Spacewatch MPS 305043
1998 10 27.42917 02 50 32.09 +14 27 23.4 19.5 V 691 – Steward Observatory, Kitt Peak-Spacewatch MPS 305043
1998 10 27.45093 02 50 30.53 +14 27 24.6 19.2 V 691 – Steward Observatory, Kitt Peak-Spacewatch MPS 305043
1998 10 27.47272 02 50 28.98 +14 27 25.1 19.4 V 691 – Steward Observatory, Kitt Peak-Spacewatch MPS 305043
1998 11 23.15664 02 21 41.16 +14 46 53.7 19.7 V 691 – Steward Observatory, Kitt Peak-Spacewatch MPS 306746
1998 11 23.17886 02 21 40.00 +14 46 55.1 19.7 V 691 – Steward Observatory, Kitt Peak-Spacewatch MPS 306746
1998 11 23.20071 02 21 38.93 +14 46 52.0 17.1 V 691 – Steward Observatory, Kitt Peak-Spacewatch MPS 306746
2008 04 13.32899 12 27 06.98 +05 21 21.1 20.6 V G96 – Mt. Lemmon Survey MPS 305043
2008 04 13.33625 12 27 06.62 +05 21 22.1 21.4 V G96 – Mt. Lemmon Survey MPS 305043
2008 04 13.34361 12 27 06.15 +05 21 23.5 21.3 V G96 – Mt. Lemmon Survey MPS 305043
2008 04 13.35082 12 27 05.58 +05 21 23.9 20.0 V G96 – Mt. Lemmon Survey MPS 305043
2008 04 13.40324 12 27 02.77 +05 21 31.4 21.0 V G96 – Mt. Lemmon Survey MPS 305043
2008 04 13.40566 12 27 02.52 +05 21 32.5 20.9 V G96 – Mt. Lemmon Survey MPS 305043
2008 04 13.40797 12 27 02.41 +05 21 32.0 21.2 V G96 – Mt. Lemmon Survey MPS 305043
2008 04 13.41029 12 27 02.30 +05 21 33.3 21.1 V G96 – Mt. Lemmon Survey MPS 305043
2009 09 11.01988 01 00 07.80 -07 46 46.2 18.4 V J75 – OAM Observatory, La Sagra MPS 295082
2009 09 11.03227 01 00 07.16 -07 46 47.4 18.6 V J75 – OAM Observatory, La Sagra MPS 295082
2009 09 11.04461 01 00 06.69 -07 46 48.3 19.1 V J75 – OAM Observatory, La Sagra MPS 295082
2009 09 12.16823 00 59 16.94 -07 48 18.4 18.9 V J75 – OAM Observatory, La Sagra MPS 295082
2009 09 12.19121 00 59 15.89 -07 48 20.6 19.0 V J75 – OAM Observatory, La Sagra MPS 295082
2009 09 16.32278 00 55 56.53 -07 53 19.3 18.6 V 703 – Catalina Sky Survey MPS 300781
2009 09 16.33316 00 55 55.92 -07 53 20.0 18.8 V 703 – Catalina Sky Survey MPS 300781
2009 09 16.34357 00 55 55.34 -07 53 21.1 18.8 V 703 – Catalina Sky Survey MPS 300781
2009 09 16.35394 00 55 54.76 -07 53 21.5 18.5 V 703 – Catalina Sky Survey MPS 300781
2009 10 09.26513 00 33 12.70 -07 40 37.6 18.8 V 703 – Catalina Sky Survey MPS 300781
2009 10 09.27232 00 33 12.31 -07 40 35.1 19.1 V 703 – Catalina Sky Survey MPS 300781
2009 10 09.27950 00 33 11.88 -07 40 34.0 18.6 V 703 – Catalina Sky Survey MPS 300781
2009 10 09.28673 00 33 11.34 -07 40 33.0 18.7 V 703 – Catalina Sky Survey MPS 300781
2009 10 19.22170 00 24 32.17 -07 03 43.4 19.1   704 – Lincoln Laboratory ETS, New Mexico MPS 299471
2009 10 19.23494 00 24 31.60 -07 03 40.3 19.1   704 – Lincoln Laboratory ETS, New Mexico MPS 299471
2009 10 19.26140 00 24 30.25 -07 03 32.0 19.6   704 – Lincoln Laboratory ETS, New Mexico MPS 299471
2009 10 19.27463 00 24 29.68 -07 03 28.3 19.7   704 – Lincoln Laboratory ETS, New Mexico MPS 299471
2009 10 20.21152 00 23 48.41 -06 58 55.5 19.3   704 – Lincoln Laboratory ETS, New Mexico MPS 299471
2009 10 20.23813 00 23 47.06 -06 58 46.6 19.8   704 – Lincoln Laboratory ETS, New Mexico MPS 299471
2009 10 20.25147 00 23 46.52 -06 58 42.9 19.4   704 – Lincoln Laboratory ETS, New Mexico MPS 299471
2009 10 20.26480 00 23 45.99 -06 58 37.8 19.1   704 – Lincoln Laboratory ETS, New Mexico MPS 299471
2009 10 26.17551 00 20 01.32 -06 25 49.1 19.2 V G96 – Mt. Lemmon Survey MPS 300781
2009 10 26.18207 00 20 01.06 -06 25 46.7 19.3 V G96 – Mt. Lemmon Survey MPS 300781
2009 10 26.18872 00 20 00.85 -06 25 44.1 19.3 V G96 – Mt. Lemmon Survey MPS 300781
2009 10 26.19534 00 20 00.60 -06 25 41.7 19.2 V G96 – Mt. Lemmon Survey MPS 300781
2011 02 12.21528 09 04 02.42 +30 17 11.5 21.1 V G96 – Mt. Lemmon Survey MPS 369600
2011 02 12.22163 09 04 02.02 +30 17 12.3 21.3 V G96 – Mt. Lemmon Survey MPS 369600
2011 02 12.22796 09 04 01.66 +30 17 13.3 21.0 V G96 – Mt. Lemmon Survey MPS 369600
2011 02 12.23432 09 04 01.16 +30 17 13.9 21.6 V G96 – Mt. Lemmon Survey MPS 369600
2012 03 28.39669 14 38 43.44 -11 24 24.6 20.7 V G96 – Mt. Lemmon Survey MPS 418532
2012 03 28.40244 14 38 43.22 -11 24 24.6 20.5 V G96 – Mt. Lemmon Survey MPS 418532
2012 03 28.40825 14 38 43.00 -11 24 24.5 20.6 V G96 – Mt. Lemmon Survey MPS 418532
2012 03 28.41406 14 38 42.79 -11 24 24.6 20.1 V G96 – Mt. Lemmon Survey MPS 418532
2012 04 03.33148 14 34 47.49 -11 17 56.0 21.0 V 691 – Steward Observatory, Kitt Peak-Spacewatch MPS 418532
2012 04 03.34924 14 34 46.71 -11 17 55.1 21.2 V 691 – Steward Observatory, Kitt Peak-Spacewatch MPS 418532
2012 04 03.36698 14 34 45.89 -11 17 52.6 20.8 V 691 – Steward Observatory, Kitt Peak-Spacewatch MPS 418532
2012 04 19.33109 14 20 17.26 -10 50 05.3 20.2 V G96 – Mt. Lemmon Survey MPS 421844
2012 04 19.33142 14 20 17.23 -10 50 05.3   691 – Steward Observatory, Kitt Peak-Spacewatch MPS 421844
2012 04 19.33982 14 20 16.58 -10 50 04.4 19.3 V G96 – Mt. Lemmon Survey MPS 421844
2012 04 19.34852 14 20 16.11 -10 50 03.0 20.2 V G96 – Mt. Lemmon Survey MPS 421844
2012 04 19.34995 14 20 16.01 -10 50 03.0   691 – Steward Observatory, Kitt Peak-Spacewatch MPS 421844
2012 04 19.36849 14 20 14.87 -10 50 01.3   691 – Steward Observatory, Kitt Peak-Spacewatch MPS 421844
2012 04 27.42606 14 11 37.479 -10 33 16.44 20.1 w F51 – Pan-STARRS 1, Haleakala MPS 423673
2012 04 27.44103 14 11 36.467 -10 33 14.62 20.1 w F51 – Pan-STARRS 1, Haleakala MPS 423673
2012 04 27.45602 14 11 35.456 -10 33 12.70 20.0 w F51 – Pan-STARRS 1, Haleakala MPS 423673
2012 04 27.47099 14 11 34.445 -10 33 10.88 20.0 w F51 – Pan-STARRS 1, Haleakala MPS 423673
2012 05 13.23728 13 55 06.45 -10 06 12.6 20.5 V G96 – Mt. Lemmon Survey MPS 424886
2012 05 13.24406 13 55 06.06 -10 06 11.9 20.1 V G96 – Mt. Lemmon Survey MPS 424886
2012 05 13.25085 13 55 05.66 -10 06 11.6 20.4 V G96 – Mt. Lemmon Survey MPS 424886
2012 05 13.25763 13 55 05.26 -10 06 11.0 20.4 V G96 – Mt. Lemmon Survey MPS 424886
2012 05 13.30978 13 55 02.13 -10 06 07.0 20.0 V G96 – Mt. Lemmon Survey MPS 424886
2012 05 13.31642 13 55 01.70 -10 06 06.4 19.9 V G96 – Mt. Lemmon Survey MPS 424886
2012 05 13.32314 13 55 01.41 -10 06 06.1 20.0 V G96 – Mt. Lemmon Survey MPS 424886
2012 05 13.32986 13 55 00.94 -10 06 05.5 20.2 V G96 – Mt. Lemmon Survey MPS 424886
2012 06 12.19961 13 37 22.29 -10 22 55.8 21.4 V G96 – Mt. Lemmon Survey MPS 427267
2012 06 12.20535 13 37 22.18 -10 22 56.8 20.9 V G96 – Mt. Lemmon Survey MPS 427267
2012 06 12.21116 13 37 22.11 -10 22 57.1 20.6 V G96 – Mt. Lemmon Survey MPS 427267
2012 06 12.21696 13 37 22.04 -10 22 58.2 20.7 V G96 – Mt. Lemmon Survey MPS 427267
2013 09 12.43380 04 17 52.26 +19 50 58.5 19.9 V G96 – Mt. Lemmon Survey MPS 477615
2013 09 12.44280 04 17 52.58 +19 51 00.9 19.8 V G96 – Mt. Lemmon Survey MPS 477615
2013 09 12.45184 04 17 53.03 +19 51 03.8 20.7 V G96 – Mt. Lemmon Survey MPS 477615
2013 09 12.46078 04 17 53.43 +19 51 06.5 20.4 V G96 – Mt. Lemmon Survey MPS 477615
2013 09 29.43068 04 26 25.82 +21 16 22.4 20.5 V G96 – Mt. Lemmon Survey MPS 479939
2013 09 29.44126 04 26 25.90 +21 16 25.1 20.2 V G96 – Mt. Lemmon Survey MPS 479939
2013 09 29.45192 04 26 26.04 +21 16 28.2 20.3 V G96 – Mt. Lemmon Survey MPS 479939
2013 09 29.46253 04 26 26.17 +21 16 31.2 20.0 V G96 – Mt. Lemmon Survey MPS 479939
2013 10 08.46559 04 26 51.00 +21 57 23.4 20.2 V G96 – Mt. Lemmon Survey MPS 482210
2013 10 08.47172 04 26 50.93 +21 57 25.1 20.0 V G96 – Mt. Lemmon Survey MPS 482210
2013 10 08.47781 04 26 50.88 +21 57 26.5 19.9 V G96 – Mt. Lemmon Survey MPS 482210
2013 10 08.48390 04 26 50.82 +21 57 28.1 20.0 V G96 – Mt. Lemmon Survey MPS 482210
2013 10 16.37967 04 24 38.47 +22 30 26.3 20.3 V G96 – Mt. Lemmon Survey MPS 483513
2013 10 16.38810 04 24 38.19 +22 30 28.7 20.2 V G96 – Mt. Lemmon Survey MPS 483513
2013 10 16.39439 04 24 38.04 +22 30 30.0 20.4 V G96 – Mt. Lemmon Survey MPS 483513
2013 10 16.40073 04 24 37.88 +22 30 31.6 20.0 V G96 – Mt. Lemmon Survey MPS 483513
2013 10 25.55307 04 19 05.955 +23 04 16.38 20.0 r F51 – Pan-STARRS 1, Haleakala MPS 485125
